Location: Unspecified
(0.0000°N, 0.0000°E)
Time: 10:14:26
(UTC+00:00)

Envisat - Pass Details

Date: 28 January 2021
Orbit: 764 x 766 km, 98.1° (Epoch: 27 February)

Event Time Altitude Azimuth Distance (km) Brightness Sun altitude
Rises 04:35:51 0° 35° (NE) 3,214 6.4 -23.0°
Reaches altitude 10° 04:38:32 10° 48° (NE) 2,291 5.8 -22.4°
Maximum altitude 04:42:36 25° 102° (ESE) 1,510 5.3 -21.4°
Drops below altitude 10° 04:46:41 10° 156° (SSE) 2,299 6.0 -20.4°
Sets 04:49:21 0° 169° (S) 3,227 6.7 -19.8°
